Time,TemperatureF,DewpointF,PressureIn,WindDirection,WindDirectionDegrees,WindSpeedMPH,WindSpeedGustMPH,Humidity,HourlyPrecipIn,Conditions,Clouds,dailyrainin,SolarRadiationWatts/m^2,SoftwareType,DateUTC
2016-07-30 00:00:00,72.0,65.5,29.87,ESE,110,0.0,0.0,80,0.00,RA,,0.00,0.0,WeatherDisplay:10.37,2016-07-30 04:00:00,
2016-07-30 00:30:00,72.2,65.7,29.87,ESE,110,0.0,0.0,80,0.00,OVC,,0.00,0.0,WeatherDisplay:10.37,2016-07-30 04:30:00,
2016-07-30 01:00:00,71.6,65.1,29.87,ESE,110,0.0,0.0,80,0.00,OVC,,0.00,0.0,WeatherDisplay:10.37,2016-07-30 05:00:00,
2016-07-30 01:30:00,71.7,65.2,29.87,ESE,110,0.0,0.0,80,0.00,OVC,,0.00,0.0,WeatherDisplay:10.37,2016-07-30 05:30:00,
2016-07-30 02:00:00,71.6,65.1,29.86,ESE,110,0.0,0.0,80,0.00,OVC,,0.00,0.0,WeatherDisplay:10.37,2016-07-30 06:00:00,
2016-07-30 02:30:00,70.8,64.3,29.85,ESE,110,0.0,0.0,80,0.00,OVC,,0.00,0.0,WeatherDisplay:10.37,2016-07-30 06:30:00,
2016-07-30 03:00:00,70.2,63.7,29.85,ESE,110,0.0,0.0,80,0.00,OVC,,0.00,0.0,WeatherDisplay:10.37,2016-07-30 07:00:00,
2016-07-30 03:30:00,70.1,63.6,29.84,ESE,110,0.0,0.0,80,0.00,OVC,,0.00,0.0,WeatherDisplay:10.37,2016-07-30 07:30:00,
2016-07-30 04:00:00,70.1,63.7,29.84,ESE,110,0.0,0.0,80,0.00,OVC,,0.00,0.0,WeatherDisplay:10.37,2016-07-30 08:00:00,
2016-07-30 04:30:00,70.0,63.5,29.84,ESE,110,0.0,0.0,80,0.00,OVC,,0.00,0.0,WeatherDisplay:10.37,2016-07-30 08:30:00,
2016-07-30 05:00:00,69.8,63.3,29.85,ESE,110,0.0,0.0,80,0.00,OVC,,0.00,0.0,WeatherDisplay:10.37,2016-07-30 09:00:00,
2016-07-30 05:30:00,69.5,63.0,29.86,ESE,110,0.0,0.0,80,0.00,OVC,,0.00,0.0,WeatherDisplay:10.37,2016-07-30 09:30:00,
2016-07-30 06:00:00,69.3,62.9,29.87,ESE,110,0.0,0.0,80,0.01,OVC,,0.01,0.0,WeatherDisplay:10.37,2016-07-30 10:00:00,
2016-07-30 06:30:00,69.6,63.2,29.87,ESE,110,0.0,0.0,80,0.00,OVC,,0.01,0.0,WeatherDisplay:10.37,2016-07-30 10:30:00,
2016-07-30 07:00:00,69.7,63.3,29.88,ESE,110,0.0,0.0,80,0.00,OVC,,0.01,0.0,WeatherDisplay:10.37,2016-07-30 11:00:00,
2016-07-30 07:30:00,70.2,63.7,29.89,ESE,110,0.0,0.0,80,0.00,OVC,,0.01,0.0,WeatherDisplay:10.37,2016-07-30 11:30:00,
2016-07-30 08:00:00,70.9,64.4,29.89,ESE,110,0.0,1.0,80,0.00,OVC,,0.01,0.0,WeatherDisplay:10.37,2016-07-30 12:00:00,
2016-07-30 08:30:00,71.3,64.8,29.90,ESE,110,0.0,1.0,80,0.00,OVC,,0.01,0.0,WeatherDisplay:10.37,2016-07-30 12:30:00,
2016-07-30 09:00:00,71.9,65.4,29.91,ESE,110,0.0,1.0,80,0.00,OVC,,0.01,0.0,WeatherDisplay:10.37,2016-07-30 13:00:00,
2016-07-30 09:30:00,72.1,65.9,29.91,ESE,110,0.0,1.0,81,0.00,OVC,,0.01,0.0,WeatherDisplay:10.37,2016-07-30 13:30:00,
2016-07-30 10:00:00,72.9,66.4,29.92,NE,54,0.0,2.0,80,0.00,OVC,,0.01,0.0,WeatherDisplay:10.37,2016-07-30 14:00:00,
2016-07-30 10:30:00,74.2,67.6,29.92,NW,320,0.0,3.0,80,0.00,OVC,,0.01,0.0,WeatherDisplay:10.37,2016-07-30 14:30:00,
2016-07-30 11:00:00,75.5,68.9,29.93,NW,315,0.0,4.0,80,0.00,OVC,,0.01,0.0,WeatherDisplay:10.37,2016-07-30 15:00:00,
2016-07-30 11:30:00,77.8,71.5,29.93,NNW,329,0.0,3.0,81,0.00,OVC,,0.01,0.0,WeatherDisplay:10.37,2016-07-30 15:30:00,